Stations météo

réclame
Mon MeteoGroup
Dieppe, France (7040): Température de l'air & dewpoint: 12.01.2020 02:00:00 - 18.01.2020 02:00:00 (CET)Dieppe, France (7040): Température de l'air 5cm: 12.01.2020 02:00:00 - 18.01.2020 02:00:00 (CET)Dieppe, France (7040): Vitesse du vent & gusts: 12.01.2020 02:00:00 - 18.01.2020 02:00:00 (CET)Dieppe, France (7040): Direction du vent: 12.01.2020 02:00:00 - 18.01.2020 02:00:00 (CET)Dieppe, France (7040): reduced air pressure: 12.01.2020 02:00:00 - 18.01.2020 02:00:00 (CET)Dieppe, France (7040): visibility: 12.01.2020 02:00:00 - 18.01.2020 02:00:00 (CET)Dieppe, France (7040): Quantités de précipitations: 12.01.2020 02:00:00 - 18.01.2020 02:00:00 (CET)
Date & Time tt [°C] td [°C] tt 5cm [°C] ff [km/h] ff [knt] fx [km/h] fx [knt] dd ppp [hPa] vv [km] rr [mm]
18.01.2020 02:00:00 4,9 3,4 4,0 10 6 47 25 SSW 1023,3 - 0,0
18.01.2020 01:00:00 5,1 3,1 4,0 16 9 36 20 SSW 1022,5 - 0,0
18.01.2020 00:00:00 5,0 2,9 4,2 18 10 44 24 SSW 1022,3 - 0,0
17.01.2020 23:00:00 5,4 2,6 4,6 18 10 37 20 SSW 1021,9 - 0,0
17.01.2020 22:00:00 5,3 2,1 4,6 18 10 51 28 SSW 1021,7 10 0,0
17.01.2020 21:00:00 6,0 3,2 5,3 25 14 50 27 SW 1021,8 - 0,0
17.01.2020 20:00:00 6,4 2,8 5,2 18 10 37 20 SSW 1021,2 - 0,0
17.01.2020 19:00:00 6,7 3,7 5,1 17 9 42 23 SW 1020,5 18 0,0
17.01.2020 18:00:00 7,0 2,9 5,2 22 12 44 24 WSW 1020,0 - 0,0
17.01.2020 17:00:00 8,2 3,8 7,6 28 15 52 28 WSW 1018,7 - 0,0
17.01.2020 16:00:00 9,2 4,2 8,7 29 16 51 28 WSW 1017,9 - 0,0
17.01.2020 15:00:00 8,8 4,0 8,6 29 16 54 29 WSW 1017,3 - 0,0
17.01.2020 14:00:00 9,3 5,5 8,8 27 15 59 32 W 1016,7 - 0,0
17.01.2020 13:00:00 9,5 5,5 9,2 32 17 61 33 WSW 1015,8 - 0,0
17.01.2020 12:00:00 9,8 5,8 9,6 24 13 50 27 SW 1015,4 - 0,0
17.01.2020 11:00:00 9,6 6,3 8,4 19 10 41 22 SW 1014,9 - 0,0
17.01.2020 10:00:00 9,4 6,8 8,3 16 9 32 18 SSW 1014,4 20 0,0
17.01.2020 09:00:00 9,5 7,4 8,3 16 9 40 22 SSW 1013,5 - 0,0
17.01.2020 08:00:00 10,0 8,1 8,8 19 10 41 22 S 1012,8 - 0,0
17.01.2020 07:00:00 10,1 8,2 9,2 19 10 36 20 S 1012,5 20 0,0
17.01.2020 06:00:00 10,0 8,6 9,0 18 10 34 19 S 1012,1 - 0,4
17.01.2020 05:00:00 9,8 8,4 8,9 18 10 41 22 S 1012,5 - 0,4
17.01.2020 04:00:00 9,9 8,3 8,7 17 9 34 19 S 1013,0 20 0,6
17.01.2020 03:00:00 10,1 8,0 8,8 15 8 41 22 S 1013,1 - 0,4
17.01.2020 02:00:00 10,8 6,9 9,4 19 10 37 20 S 1013,0 - 0,0
17.01.2020 01:00:00 11,5 6,4 11,1 15 8 36 19 S 1013,2 20 0,0
17.01.2020 00:00:00 11,5 6,2 10,6 19 10 44 24 S 1013,4 - 0,0
16.01.2020 23:00:00 11,3 6,2 10,7 19 11 48 26 S 1013,5 - 0,0
16.01.2020 22:00:00 11,4 6,1 10,9 22 12 52 28 S 1014,0 - 0,0
16.01.2020 21:00:00 12,0 5,8 11,5 18 10 51 28 S 1014,6 - 0,0
16.01.2020 20:00:00 12,5 6,1 11,9 18 10 49 26 S 1014,9 - 0,0
16.01.2020 19:00:00 12,6 6,4 11,8 18 10 54 29 SSE 1014,9 20 0,0
16.01.2020 18:00:00 12,6 6,6 11,9 22 12 49 27 SSE 1014,8 - 0,0
16.01.2020 17:00:00 13,0 6,6 12,5 23 12 61 33 S 1014,9 - 0,0
16.01.2020 16:00:00 13,2 6,8 13,5 24 13 56 31 S 1015,8 20 0,0
16.01.2020 15:00:00 12,9 6,7 12,3 25 14 57 31 SSE 1016,0 - 0,0
16.01.2020 14:00:00 11,7 7,4 11,2 23 12 51 27 SSE 1017,3 - 0,0
16.01.2020 13:00:00 10,4 6,9 10,1 24 13 50 27 SSE 1018,6 20 0,0
16.01.2020 12:00:00 8,7 6,7 7,8 22 12 49 27 SSE 1019,6 - 0,0
16.01.2020 11:00:00 7,4 6,2 6,1 21 11 47 26 S 1020,5 - 0,0
16.01.2020 10:00:00 6,0 5,1 5,1 15 8 35 19 SSE 1020,8 17 0,2
16.01.2020 09:00:00 5,3 4,7 3,7 16 9 31 17 SSE 1021,4 - 0,0
16.01.2020 08:00:00 4,2 3,5 3,5 8 5 26 14 SSE 1021,8 - 0,0
16.01.2020 07:00:00 4,3 3,6 3,4 11 6 24 13 SSE 1022,4 17 0,0
16.01.2020 06:00:00 3,8 2,9 3,3 11 6 28 15 SSE 1022,9 - 0,0
16.01.2020 05:00:00 4,8 3,6 4,2 11 6 22 12 SSE 1023,1 - 0,0
16.01.2020 04:00:00 5,3 3,9 4,6 10 5 22 12 SSE 1023,0 20 0,0
16.01.2020 03:00:00 5,8 4,1 5,3 11 6 21 11 SSE 1023,0 - 0,0
16.01.2020 02:00:00 6,1 4,4 5,2 11 6 19 11 S 1022,6 - 0,0
16.01.2020 01:00:00 5,8 4,4 5,2 10 6 20 11 SSE 1022,8 - 0,2
16.01.2020 00:00:00 5,9 4,5 5,3 13 7 26 14 S 1022,4 - 0,0
15.01.2020 23:00:00 6,5 5,0 5,9 14 8 27 15 S 1022,0 - 0,0
15.01.2020 22:00:00 6,5 5,1 5,9 16 9 26 14 S 1021,6 - 0,0
15.01.2020 21:00:00 7,1 5,6 6,4 14 8 24 13 S 1020,5 - 0,0
15.01.2020 20:00:00 7,2 5,7 6,6 14 8 24 13 S 1019,5 - 0,0
15.01.2020 19:00:00 7,7 5,8 7,0 13 7 23 13 S 1018,3 - 0,0
15.01.2020 18:00:00 8,2 6,3 7,4 11 6 21 11 S 1017,2 - 0,0
15.01.2020 17:00:00 8,8 6,8 8,2 10 5 21 11 SW 1015,7 - 0,0
15.01.2020 16:00:00 8,8 7,2 8,4 10 5 16 9 SW 1014,0 - 0,0
15.01.2020 15:00:00 8,5 7,9 7,9 8 4 26 14 WNW 1012,7 - 0,8
15.01.2020 14:00:00 8,8 8,0 8,4 12 6 49 26 WNW 1011,0 - 1,4
15.01.2020 13:00:00 11,0 6,7 9,8 26 14 67 36 SSW 1008,6 - 0,0
15.01.2020 12:00:00 10,8 6,3 9,9 34 18 68 37 S 1007,4 - 0,0
15.01.2020 11:00:00 10,7 5,7 8,8 29 16 69 37 S 1007,0 - 0,0
15.01.2020 10:00:00 10,5 5,5 8,8 31 17 66 35 S 1006,0 12 0,2
15.01.2020 09:00:00 10,9 4,8 10,1 29 16 60 32 S 1005,3 - 0,0
15.01.2020 08:00:00 10,5 4,6 10,0 31 17 63 34 S 1005,5 - 0,0
15.01.2020 07:00:00 10,7 4,6 10,0 29 15 61 33 S 1005,3 16 0,0
15.01.2020 06:00:00 10,6 4,7 10,2 28 15 64 34 S 1005,1 - 0,0
15.01.2020 05:00:00 11,2 5,1 10,4 30 16 68 37 S 1005,1 - 0,0
15.01.2020 04:00:00 11,2 5,3 10,7 31 17 64 35 S 1005,5 - 0,0
15.01.2020 03:00:00 11,4 5,9 10,9 32 17 69 37 S 1005,6 - 0,0
15.01.2020 02:00:00 11,9 6,0 11,4 32 17 72 39 S 1005,5 - 0,0
15.01.2020 01:00:00 12,1 6,6 11,7 35 19 72 39 S 1005,4 10 0,0
15.01.2020 00:00:00 12,6 7,7 12,1 36 19 74 40 S 1005,4 - 0,0
14.01.2020 23:00:00 13,0 7,9 11,7 31 17 66 36 SSW 1005,0 - 0,0
14.01.2020 22:00:00 12,7 9,0 10,8 31 17 74 40 SSW 1005,2 - 0,0
14.01.2020 21:00:00 12,2 9,8 10,8 35 19 72 39 SSW 1004,5 - 0,4
14.01.2020 20:00:00 13,0 9,1 11,7 39 21 72 39 SSW 1004,5 - 0,0
14.01.2020 19:00:00 12,7 9,7 11,2 34 18 67 36 SSW 1004,0 15 0,2
14.01.2020 18:00:00 12,5 9,9 11,1 31 17 65 35 S 1003,8 - 0,0
14.01.2020 17:00:00 12,8 9,1 12,4 35 19 66 36 S 1003,1 - 0,0
14.01.2020 16:00:00 12,8 9,2 12,5 37 20 71 38 S 1002,5 - 0,0
14.01.2020 15:00:00 12,7 9,5 11,1 36 19 76 41 S 1002,1 - 0,2
14.01.2020 14:00:00 12,9 9,5 11,8 36 19 81 44 S 1001,9 - 0,0
14.01.2020 13:00:00 12,0 9,7 11,2 32 17 67 36 S 1002,6 8 0,0
14.01.2020 12:00:00 12,3 10,0 10,5 29 16 61 33 S 1003,1 - 0,0
14.01.2020 11:00:00 10,8 10,0 9,5 22 12 42 23 S 1003,7 - 0,2
14.01.2020 10:00:00 9,8 9,3 8,7 19 10 39 21 S 1003,9 - 0,4
14.01.2020 09:00:00 9,0 8,5 8,4 13 7 26 14 S 1003,9 - 1,6
14.01.2020 08:00:00 8,7 8,2 8,2 13 7 26 14 S 1004,0 - 2,5
14.01.2020 07:00:00 8,6 8,0 8,2 14 7 32 17 SW 1003,8 8 1,0
14.01.2020 06:00:00 8,7 8,1 8,2 15 8 42 23 WSW 1003,3 - 2,6
14.01.2020 05:00:00 9,4 8,5 8,7 23 12 72 39 W 1002,8 - 1,8
14.01.2020 04:00:00 10,9 8,5 9,6 32 18 69 37 S 1001,4 8 0,0
14.01.2020 03:00:00 10,7 8,1 9,2 34 18 64 34 S 1001,8 - 0,2
14.01.2020 02:00:00 10,6 8,0 9,2 32 17 74 40 S 1002,3 - 0,4
14.01.2020 01:00:00 11,2 8,1 9,9 34 18 69 38 S 1002,7 8 0,0
14.01.2020 00:00:00 11,5 8,0 10,0 34 18 61 33 S 1003,0 - 0,0
13.01.2020 23:00:00 11,1 7,8 10,6 36 19 71 38 S 1003,7 - 0,0
13.01.2020 22:00:00 11,2 7,5 10,5 35 19 74 40 S 1004,2 - 0,0
13.01.2020 21:00:00 10,8 7,8 10,3 29 16 67 36 S 1005,0 - 0,0
13.01.2020 20:00:00 11,0 7,5 10,5 30 16 63 34 S 1005,7 - 0,0
13.01.2020 19:00:00 11,0 7,7 10,3 29 16 60 32 S 1006,3 - 0,0
13.01.2020 18:00:00 10,7 7,8 9,9 27 14 53 28 S 1007,0 - 0,0
13.01.2020 17:00:00 10,3 8,2 10,0 23 12 49 26 S 1007,8 - 0,0
13.01.2020 16:00:00 10,1 8,2 9,5 19 10 36 19 S 1009,4 - 0,0
13.01.2020 15:00:00 9,3 8,1 8,9 13 7 41 22 S 1011,1 - 0,0
13.01.2020 14:00:00 9,0 7,9 8,2 18 10 40 21 S 1012,2 - 0,0
13.01.2020 13:00:00 8,5 7,3 8,1 14 8 36 20 S 1013,6 8 0,0
13.01.2020 12:00:00 8,5 6,5 8,1 18 10 39 21 S 1015,3 - 0,0
13.01.2020 11:00:00 7,2 5,8 5,9 15 8 37 20 S 1016,8 - 0,0
13.01.2020 10:00:00 5,8 4,8 5,1 19 11 40 21 S 1018,0 - 0,2
13.01.2020 09:00:00 5,4 4,4 4,9 18 10 33 18 S 1018,4 - 0,0
13.01.2020 08:00:00 5,4 4,5 4,9 17 9 34 19 S 1018,8 - 0,0
13.01.2020 07:00:00 5,6 4,6 5,0 14 8 29 16 S 1018,8 18 0,0
13.01.2020 06:00:00 5,9 4,5 5,2 15 8 29 15 S 1019,9 - 0,0
13.01.2020 05:00:00 5,7 4,0 5,2 12 7 22 12 S 1020,7 - 0,0
13.01.2020 04:00:00 5,8 4,1 5,3 13 7 22 12 S 1021,5 18 0,0
13.01.2020 03:00:00 5,7 4,2 5,3 15 8 25 14 S 1022,4 - 0,0
13.01.2020 02:00:00 5,8 4,4 5,3 14 8 24 13 S 1022,9 - 0,0
13.01.2020 01:00:00 6,2 4,7 5,7 15 8 23 12 S 1023,7 - 0,0
13.01.2020 00:00:00 6,6 4,9 6,1 15 8 24 13 S 1023,9 - 0,0
12.01.2020 23:00:00 7,5 5,5 6,8 14 8 23 13 S 1024,1 - 0,0
12.01.2020 22:00:00 7,7 5,5 7,0 11 6 22 12 S 1024,0 18 0,0
12.01.2020 21:00:00 8,1 6,1 7,6 12 7 25 13 S 1024,1 - 0,0
12.01.2020 20:00:00 8,5 6,5 7,6 12 7 25 13 SSW 1024,2 - 0,0
12.01.2020 19:00:00 9,2 6,6 8,6 13 7 34 18 SSW 1024,0 18 0,0
12.01.2020 18:00:00 9,9 6,8 9,2 19 11 40 22 SW 1023,7 - 0,0
12.01.2020 17:00:00 10,4 7,1 9,8 22 12 45 24 WSW 1023,4 - 0,0
12.01.2020 16:00:00 10,5 7,4 9,8 28 15 54 29 WSW 1022,9 15 0,0
12.01.2020 15:00:00 11,5 7,8 11,2 26 14 48 26 WSW 1022,3 - 0,0
12.01.2020 14:00:00 11,9 7,4 12,0 24 13 55 30 WSW 1022,1 - 0,0
12.01.2020 13:00:00 11,7 7,8 11,2 28 15 55 30 SW 1022,2 15 0,0
12.01.2020 12:00:00 11,1 8,0 9,9 24 13 45 24 SW 1022,8 - 0,0
12.01.2020 11:00:00 9,8 7,9 9,3 22 12 48 26 SSW 1022,6 - 0,0
12.01.2020 10:00:00 9,6 7,0 8,4 21 11 53 28 SSW 1021,9 15 0,0
12.01.2020 09:00:00 8,9 6,3 7,1 24 13 51 27 SSW 1021,1 - 0,0
12.01.2020 08:00:00 7,8 5,4 6,4 25 14 49 26 S 1021,3 - 0,0
12.01.2020 07:00:00 7,7 4,5 6,7 25 14 51 27 S 1021,6 18 0,0
12.01.2020 06:00:00 7,2 4,2 6,3 24 13 48 26 S 1021,6 - 0,0
12.01.2020 05:00:00 6,6 3,7 6,2 20 11 47 26 S 1022,8 - 0,0
12.01.2020 04:00:00 6,7 3,5 6,1 22 12 45 24 S 1023,3 10 0,0
12.01.2020 03:00:00 6,8 3,4 6,2 17 9 36 19 S 1024,0 - 0,0
12.01.2020 02:00:00 7,0 3,4 6,5 17 9 39 21 S 1024,2 - 0,0

tt = Température de l'air
td = dewpoint
tt 5cm = Température de l'air 5cm
ff = Vitesse du vent
fx = gusts
dd = Direction du vent
ppp = reduced air pressure
vv = visibility
rr = Quantités de précipitations

stations d'obs. à proximité